Hourly Data Report for September 24, 2017

All times are specified in Local Standard Time (LST). Add 1 hour to adjust for Daylight Saving Time where and when it is observed.

KOUCHIBOUGUAC CS
NEW BRUNSWICK

46°47'00.000" N
65°01'00.000" W
21.00 m
8102328
71670
AKC

Download Data

Hourly Data (September 2017)
Hourly Data Report for September 24, 2017
Temp Definition
°C
Dew Point Temp Definition
°C
Rel Hum Definition
%
Wind Dir Definition
10's deg

Wind Spd Definition
km/h
Visibility Definition
km
Stn Press Definition
kPa
Hmdx Definition


Wind Chill Definition


Weather Definition


TIME
00:00 10.5 9.9 96   0   101.54     LegendNANA
01:00 9.6 9.1 97   0   101.56     LegendNANA
02:00 8.7 8.3 98 16 2   101.55     LegendNANA
03:00 7.9 7.6 98   0   101.54     LegendNANA
04:00 7.3 7.0 98 16 3   101.52     LegendNANA
05:00 6.9 6.7 98   0   101.49     LegendNANA
06:00 6.7 6.4 98 17 3   101.49     LegendNANA
07:00 8.1 7.9 99 0 1   101.48     LegendNANA
08:00 12.8 12.4 98   0   101.46     LegendNANA
09:00 15.9 12.5 80 16 7   101.42     LegendNANA
10:00 16.3 13.3 82 6 4   101.43     LegendNANA
11:00 18.2 14.2 78 4 4   101.36     LegendNANA
12:00 19.2 13.6 70 1 4   101.28     LegendNANA
13:00 21.2 14.8 67 34 2   101.25 25   LegendNANA
14:00 22.9 14.7 60 33 4   101.22 27   LegendNANA
15:00 22.4 15.7 66 6 7   101.18 27   LegendNANA
16:00 21.3 15.4 69 8 5   101.22 26   LegendNANA
17:00 19.7 15.1 75 4 7   101.26     LegendNANA
18:00 18.1 15.0 82 4 4   101.34     LegendNANA
19:00 17.2 14.8 86 0 1   101.43     LegendNANA
20:00 17.3 14.8 86 36 6   101.52     LegendNANA
21:00 16.7 13.3 80 36 8   101.52     LegendNANA
22:00 15.8 13.2 85 33 6   101.55     LegendNANA
23:00 13.6 12.7 94 32 3   101.57     LegendNANA

Notes on Data Quality.

Legend

  • E = Estimated
  • M = Missing
  • NA = Not Available
  • ‡ = Partner data that is not subject to review by the National Climate Archives
Date modified: